Voltar ao catálogo

STARLINK-5940

AtivoComunicaçõesVLEO
NORAD 56012·PAYLOAD·🇺🇸 United States

Lançado Mar 24, 2023 de Cape Canaveral Space Force Station

Loading…

Próximas Passagens (próximas 24 horas)

TLE

AtualizadoSource: CelesTrak SupGP

Época: Sep 14, 2026, 21:01 UTC

1 56012C 23042AC  26257.87618056  .00040718  00000+0  14751-2 0  2574
2 56012  43.0016  56.4501 0001406 272.8616  74.9961 15.27552330    14

Acompanhe STARLINK-5940 em tempo real com AllMySat

Download on the App Store